FW6626 Weather Reports


time (UTC)temp
C
wind
direction
speed
KPH
gust
KPH
rain 1hr
cm
rain 24hr
cm
rain mn
cm
humidity
%
barometer
mb
20260504194608 18 360 6.4 19.3 0.00 0.03 0.03 66 1016.7
20260504193053 18 304 11.3 20.9 0.00 0.03 0.03 66 1016.9
20260504191557 18 265 9.7 22.5 0.00 0.03 0.03 68 1017.1
20260504190117 18 294 8.0 22.5 0.00 0.03 0.03 69 1017.0
20260504184600 18 296 9.7 22.5 0.00 0.03 0.03 68 1017.3
20260504183053 17 290 11.3 22.5 0.00 0.03 0.03 68 1017.2
20260504181553 18 307 11.3 32.2 0.00 0.03 0.03 68 1017.1
20260504180142 17 276 11.3 19.3 0.00 0.03 0.03 70 1017.2
20260504174551 17 267 11.3 24.1 0.00 0.03 0.03 70 1016.9
20260504173100 17 248 11.3 24.1 0.00 0.03 0.03 69 1016.9
20260504171553 16 292 9.7 22.5 0.00 0.03 0.03 73 1016.8
20260504120111 14 0 0.0 4.8 0.00 0.00 0.00 81 1015.4
20260504081552 15 272 6.4 19.3 0.00 0.00 0.00 81 1015.8
20260504050120 16 0 1.6 11.3 0.00 0.00 0.00 76 1015.5
20260504044552 16 251 1.6 11.3 0.00 0.00 0.00 76 1015.5
20260504043059 16 252 3.2 9.7 0.00 0.00 0.00 75 1015.2
20260504041552 16 252 3.2 11.3 0.00 0.00 0.00 74 1015.2
20260504040103 16 254 3.2 9.7 0.00 0.00 0.00 73 1015.3
20260504034557 16 251 3.2 9.7 0.00 0.00 0.00 73 1015.3
20260504033051 16 241 4.8 11.3 0.00 0.00 0.00 73 1015.2
20260504031617 16 247 4.8 11.3 0.00 0.00 0.00 72 1015.0
20260504030058 16 0 3.2 11.3 0.00 0.00 0.00 72 1014.6
20260504024550 16 276 3.2 12.9 0.00 0.00 0.00 72 1014.4
20260504023050 16 247 3.2 17.7 0.00 0.00 0.00 72 1014.3
20260504021554 16 270 6.4 19.3 0.00 0.00 0.00 72 1014.5
20260504020051 16 296 6.4 16.1 0.00 0.00 0.00 72 1014.4
20260504014553 17 257 8.0 17.7 0.00 0.00 0.00 71 1014.3
20260504013054 17 360 9.7 19.3 0.00 0.00 0.00 70 1014.3
20260504011556 17 244 8.0 19.3 0.00 0.00 0.00 70 1013.9
20260504010058 17 257 8.0 20.9 0.00 0.00 0.00 69 1013.9
20260504004556 17 229 11.3 25.7 0.00 0.00 0.00 70 1013.8
20260504003051 17 255 14.5 20.9 0.00 0.00 0.00 68 1013.8
20260504001608 17 268 11.3 22.5 0.00 0.00 0.00 66 1013.8
20260504000055 17 259 9.7 20.9 0.00 0.00 0.00 67 1013.6
20260503234553 18 283 6.4 19.3 0.00 0.00 0.00 63 1013.5
20260503233055 18 360 8.0 22.5 0.00 0.00 0.00 64 1013.3
20260503231554 18 237 9.7 22.5 0.00 0.00 0.00 63 1013.5
20260503230056 19 245 6.4 22.5 0.00 0.00 0.00 61 1013.9
20260503224551 19 231 9.7 20.9 0.00 0.00 0.00 61 1013.8
20260503223057 19 296 11.3 20.9 0.00 0.00 0.00 60 1013.8
20260503221555 20 256 9.7 19.3 0.00 0.00 0.00 58 1013.9
20260503214555 20 360 11.3 19.3 0.00 0.00 0.00 58 1014.1
20260503213123 20 259 8.0 20.9 0.00 0.00 0.00 58 1014.1
20260503211617 19 290 8.0 20.9 0.00 0.00 0.00 59 1014.1
20260503210052 20 229 8.0 29.0 0.00 0.00 0.00 64 1014.3
20260503204606 19 254 11.3 29.0 0.00 0.00 0.00 66 1014.4
20260503203050 18 242 11.3 24.1 0.00 0.00 0.00 66 1014.5
20260503201552 18 360 11.3 20.9 0.00 0.00 0.00 68 1014.8
20260503200052 18 292 9.7 24.1 0.00 0.00 0.00 68 1014.9